Regional Weather Roundup
Issued by NWS

Home | Current Version | Previous Version | Graphics & Text | Print | Product List | Glossary On
Versions: 1 2 3 4 5 6 7 8 9 10 11 12 13 14 15 16 17 18 19 20 21 22 23 24 25 26 27 28 29 30 31 32 33 34 35 36 37 38 39 40 41 42 43 44 45 46 47 48 49 50
000
ASUS43 KMPX 030810
RWRMN
WEATHER ROUNDUP FOR MINNESOTA
NATIONAL WEATHER SERVICE TWIN CITIES/CHANHASSEN MN
300 AM CDT WED JUN 03 2015


NOTE: "FAIR" INDICATES FEW OR NO CLOUDS BELOW 12,000 FEET WITH NO
SIGNIFICANT WEATHER AND/OR OBSTRUCTIONS TO VISIBILITY. N/A MEANS
CURRENT SKY AND/OR WEATHER CONDITIONS ARE NOT AVAILABLE.

MNZ060>063-068>070-030900-
   Twin Cities Metro

CITY           SKY/WX    TMP DP  RH WIND       PRES   REMARKS
TWIN CITIES    CLOUDY    66  54  65 S12       29.89S
ST PAUL        CLOUDY    64  54  69 S10       29.89F
CRYSTAL        CLOUDY    68  54  60 S12G21    29.86F
BLAINE         CLOUDY    66  55  68 S13       29.87F
LAKEVILLE      CLOUDY    63  54  72 S8        29.89S
EDEN PRAIRIE   CLOUDY    66  54  65 S13       29.87S
SOUTH ST PAUL  CLOUDY    64  53  67 SE9       29.89F
LAKE ELMO      CLOUDY    63  54  72 S9        29.91S
$$
MNZ001>005-007-008-013>017-022>024-027-028-030900-
   Northwest Minnesota

CITY           SKY/WX    TMP DP  RH WIND       PRES   REMARKS
BEMIDJI        TSTM      62  57  84 SW6       29.82R
HALLOCK        CLOUDY    55  54  94 N8        29.80R
ROSEAU         HAZE      61  54  77 NE9       29.80R VSB 3/4
WARROAD        FOG       57  55  94 NE9       29.82R VSB 3/4
THIEF RVR FALL CLOUDY    59  57  94 E8        29.75F
CROOKSTON      MOCLDY    61  59  94 E7        29.72S
FOSSTON        CLOUDY    61  57  88 E3        29.77F THUNDER
DETROIT LAKES  PTCLDY    64  57  77 S10       29.75S
MOORHEAD       MOCLDY    66  61  82 S16       29.70R
PARK RAPIDS    MOCLDY    63  57  81 SE10      29.78R
MAHNOMEN       CLOUDY    63  59  87 E9        29.75R
$$
MNZ006-009>011-018-025>026-030900-
   North Central Minnesota

CITY           SKY/WX    TMP DP  RH WIND       PRES   REMARKS
BAUDETTE       CLOUDY    59  57  93 NE6       29.79F
FLAG ISLAND    CLOUDY    57  57 100 NE14      29.80S
INTL FALLS     LGT RAIN  58  57  97 CALM      29.81F
WASKISH        RAIN      59  57  94 SE12G20   29.76F
BIG FORK       CLOUDY    59  57  94 CALM      29.83F
LONGVILLE      CLOUDY    66  54  63 S10G17    29.80S THUNDER
GRAND RAPIDS   CLOUDY    63  52  67 S12       29.82R
CRANE LAKE     CLOUDY    55  55 100 SE6       29.87F
ORR            CLOUDY    57  54  88 SE2       29.84F
COOK           TSTM      57  55  94 E5        29.88F
WALKER         TSTM      60  57  88 CALM      29.80R
$$
MNZ012-019>021-037-030900-
   Northeast Minnesota

CITY           SKY/WX    TMP DP  RH WIND       PRES   REMARKS
DULUTH         CLOUDY    53  43  68 SE7       29.88F
ELY            RAIN      54  52  94 NE5       29.92S
HIBBING        CLOUDY    59  52  77 S5        29.84F
EVELETH        CLOUDY    57  52  82 CALM      29.87F
DULUTH HARBOR  CLOUDY    46  41  81 NE7       29.91S
TWO HARBORS    CLOUDY    55  48  76 CALM      29.88S
SILVER BAY     CLOUDY    54  48  82 CALM      29.89R
GRAND MARAIS     N/A     43  38  82 NE6       29.92R
G MARAIS ARPRT CLOUDY    48  45  87 CALM      29.94S
$$
MNZ029>031-032-039>041-046>048-054>057-064-030900-
   West Central Minnesota

CITY           SKY/WX    TMP DP  RH WIND       PRES   REMARKS
FERGUS FALLS   MOCLDY    66  57  72 S14       29.74R
WHEATON        MOCLDY    64  59  82 SE13      29.74S
MORRIS         PTCLDY    64  57  77 SE14      29.76R
ALEXANDRIA     PTCLDY    65  56  72 S15       29.80R
ELBOW LAKE     FAIR      64  57  79 S17       29.74S
WADENA         MOCLDY    63  55  77 SE10      29.78S
GLENWOOD       PTCLDY    64  55  72 S16G23    29.80R
APPLETON       MOCLDY    66  57  72 S7        29.76S
BENSON         PTCLDY    64  55  72 S10       29.78S
ORTONVILLE     MOCLDY    68  61  77 S8        29.75S
MADISON        CLOUDY    68  59  73 SW17G24   29.76R
WILLMAR        FAIR      64  57  77 S9        29.83R
$$
MNZ033>034-036-042>043-049>051-058-059-030900-
   Central Minnesota

CITY           SKY/WX    TMP DP  RH WIND       PRES   REMARKS
ST CLOUD       PTCLDY    64  54  69 S12       29.84S
SAUK CENTRE    FAIR      63  55  76 SE10      29.81S
PAYNESVILLE    PTCLDY    61  54  78 SE10G16   29.83R
AITKIN         CLOUDY    66  54  63 S10       29.82S
PINE RIVER     TSTM      63  55  77 S13G20    29.84S
BRAINERD       CLOUDY    66  53  63 S9        29.84R THUNDER
STAPLES        CLOUDY    63  55  77 E5        29.81R
LONG PRAIRIE   CLOUDY    63  54  72 SE15      29.82R
LITTLE FALLS   MOCLDY    64  52  63 S10       29.82F
LITCHFIELD     PTCLDY    64  55  72 S7        29.84R
BUFFALO        PTCLDY    65  53  66 S8        29.87R
MAPLE LAKE     PTCLDY    65  56  72 S6        29.86R
$$
MNZ037-044-045-052-053-030900-
   East Central Minnesota

CITY           SKY/WX    TMP DP  RH WIND       PRES   REMARKS
PRINCETON      PTCLDY    66  55  68 S9        29.86S
MORA           CLOUDY    64  54  68 S7        29.87F
CAMBRIDGE      MOCLDY    70  54  56 S9        29.85S
RUSH CITY      CLOUDY    64  52  67 S8        29.88F
MOOSE LAKE     CLOUDY    63  52  67 S6        29.84F
HINCKLEY       CLOUDY    64  54  68 S8        29.87F
CLOQUET        CLOUDY    50  43  76 E5        29.87F
MCGREGOR       PTCLDY    63  52  67 S9        29.84F
$$
MNZ071>073-080-081-089-090-097-098-030900-
   Southwest Minnesota

CITY           SKY/WX    TMP DP  RH WIND       PRES   REMARKS
MONTEVIDEO     MOCLDY    66  57  72 SW9       29.79R
GRANITE FALLS  MOCLDY    65  56  75 S14       29.81S
CANBY          CLOUDY    68  60  74 SW20G33   29.75F
MARSHALL       CLOUDY    66  55  68 S15G22    29.78F
REDWOOD FALLS  MOCLDY    65  56  72 S13       29.82R
OLIVIA         MOCLDY    61  52  72 S12G17    29.81S
PIPESTONE      CLOUDY    64  57  77 SW14      29.84R
WINDOM         PTCLDY    64  55  72 S12G20    29.85S
WORTHINGTON    MOCLDY    63  54  72 S16G23    29.85F
JACKSON        MOCLDY    63  55  77 S17G25    29.87F
TRACY          MOCLDY    65  58  77 S21G28    29.81S
SLAYTON        MOCLDY    63  58  84 S12G21    29.85S
$$
MNZ065>067-074>077-082>085-091>093-030900-
   South Central Minnesota

CITY           SKY/WX    TMP DP  RH WIND       PRES   REMARKS
MANKATO        PTCLDY    63  54  72 S10G18    29.87F
NEW ULM        MOCLDY    63  54  72 S12       29.85S
ST JAMES       MOCLDY    64  57  77 S18       29.86F
FAIRMONT       CLOUDY    63  52  67 S16       29.87F
GLENCOE        MOCLDY    65  57  73 S7        29.86R
FARIBAULT      PTCLDY    63  55  77 S13       29.90S
OWATONNA       CLEAR     63  54  72 S16G23    29.91S
WASECA         PTCLDY    63  54  72 S16       29.91S
ALBERT LEA     CLEAR     61  54  77 S10       29.92S
$$
MNZ078>079-086>088-094>096-030900-
   Southeast Minnesota

CITY           SKY/WX    TMP DP  RH WIND       PRES   REMARKS
ROCHESTER      CLEAR     59  53  80 S14       29.96F
RED WING       CLEAR     61  52  72 SE7       29.92S
STANTON        PTCLDY    63  54  71 S12G18    29.88F
DODGE CENTER   CLEAR     61  54  77 S14       29.93F
WINONA         CLEAR     59  52  77 SE6       29.96F
AUSTIN         CLEAR     59  54  82 S10G18    29.94F
PRESTON        CLEAR     56  52  86 S9        29.98S
$$
ABBREVIATIONS USED IN REMARKS
   TC - TEMPERATURES IN CELSIUS
  WCI - WIND CHILL INDEX
   HX - HEAT INDEX
  VSB - VISIBILITY
$$



USA.gov is the U.S. government's official web portal to all federal, state and local government web resources and services.